Flag for Turkey Weather past 2 weeks in Samsun, Turkey

Now
68 °F

Partly cloudy.


Feels Like: 68 °F
Forecast: 57 / 75 °F
Wind: No wind

Location: Samsun / Carsamba

Current Time: Sep 17, 2014 at 9:23:59 PM

Latest Report: Sep 17, 2014 at 8:50 PM


Visibility: N/A

Pressure: 29.86 "Hg

Humidity: 88%

Dew point: 64 °F

Location of SamsunLocation

Historic Weather in Samsun — Graph

°F

Samsun temperature yesterday

Maximum temperature yesterday: 79 °F (at 11:50 AM)
Minimum temperature yesterday: 63 °F (at 1:50 AM)
Average temperature yesterday: 70 °F

Past Weeks' High & Low Weather Summary

 TemperatureHumidityPressure
High86 °F (Sep 4, 1:50 PM)100% (Sep 3, 12:50 AM)30.04 "Hg (Sep 3, 12:50 AM)
Low57 °F (Sep 15, 4:50 AM)45% (Sep 16, 12:50 PM)29.65 "Hg (Sep 6, 1:50 PM)
Average72 °F81%29.87 "Hg
* Reported Sep 2 7:50 PM — Sep 17 7:50 PM, Samsun, Weather by CustomWeather, © 2014

Note: Actual official high and low records may vary slightly from our data, if they occured in-between our weather recording intervals... More about our weather records

Advertising

Samsun weather history for previous 24 hours

 ConditionsComfort  
Time TempWeatherWind HumidityBarometerVisibility
7:50 PM
Sep 17
70 °FPartly cloudy.No wind83%29.86 "HgN/A
6:50 PM70 °FBroken clouds.1 mph78%29.86 "HgN/A
5:50 PM72 °FBroken clouds.2 mph69%29.86 "HgN/A
4:50 PM72 °FBroken clouds.5 mph69%29.86 "HgN/A
3:50 PM73 °FBroken clouds.7 mph61%29.86 "HgN/A
2:50 PM75 °FBroken clouds.7 mph57%29.86 "HgN/A
1:50 PM73 °FBroken clouds.7 mph61%29.89 "HgN/A
12:50 PM73 °FBroken clouds.6 mph57%29.89 "HgN/A
11:50 AM73 °FBroken clouds.5 mph61%29.89 "HgN/A
10:50 AM73 °FBroken clouds.8 mph65%29.89 "HgN/A
9:50 AM70 °FBroken clouds.3 mph88%29.89 "HgN/A
8:50 AM66 °FBroken clouds.1 mph94%29.92 "HgN/A
7:50 AM64 °FBroken clouds.2 mph100%29.89 "HgN/A
6:50 AM64 °FSprinkles. Passing clouds.6 mph100%29.89 "Hg5 mi
5:50 AM64 °FSprinkles. Passing clouds.5 mph94%29.89 "Hg5 mi
4:50 AM64 °FSprinkles. Passing clouds.5 mph94%29.89 "Hg5 mi
3:50 AM66 °FRain showers. Passing clouds.10 mph94%29.89 "Hg5 mi
2:50 AM68 °FSprinkles. Passing clouds.5 mph88%29.89 "HgN/A
1:50 AM64 °FSprinkles. Passing clouds.3 mph88%29.89 "HgN/A
12:50 AM70 °FPassing clouds.9 mph73%29.89 "HgN/A
11:50 PM
Sep 16
64 °FPassing clouds.2 mph83%29.89 "HgN/A
10:50 PM64 °FPassing clouds.1 mph83%29.89 "HgN/A
9:50 PM64 °FPassing clouds.3 mph88%29.92 "HgN/A
Weather by CustomWeather, © 2014

See weather overviewHow to use our weather pages